DELTA 2 R/B (1) - Orbit

View from above orbital plane
View from above orbital plane
View from above satellite
View from above satellite

Ground track
Ground track

The orbit data is extracted from the following two-line orbital elements,

1 27665U 03005C   13138.18318116 -.00000059  00000-0  10392-4 0  7564
2 27665 039.5746 140.2810 0008615 295.6308 123.5246 14.28047876537703
Epoch (UTC): 18 May 2013 04:23:46
Eccentricity: 0.0008615
inclination: 39.5746°
perigee height: 792 km
apogee height: 804 km
right ascension of ascending node: 140.2810°
argument of perigee: 295.6308°
revolutions per day: 14.28047876
mean anomaly at epoch: 123.5246°
orbit number at epoch: 53770

The dashed part of the orbit path shows where the satellite is in the earth's shadow,  

Developed and maintained by Chris Peat, Heavens-Above GmbH. Please read the updated FAQ before sending e-mail. Imprint. DLR